Flight Information

DEPARTURE
SAN JOSE, CA
Elevation:
62
Runways:
12L/30R - 11000x150 - CONC-G
12R/30L - 11000x150 - CONC-G
Active PE Departure:
30L - 30R
Current PE ATIS:
A
Altimeter:
29.98
Remarks:
V F R DEPARTURES CONTACT CLEARANCE DELIVERY, ADVISE ON COURSE HEADING, ALTITUDE, AND IF FLIGHT FOLLOWING IS REQUESTED.
ATIS:
126.95 408-980-8459
Clearance Delivery:
118
Ground:
121.7
Tower:
SAN JOSE TOWER 124.0
DESTINATION
,
Elevation:
TPA:
1000 (est.)


6891.1 NM69° True-15° Var54° HDG

Flight Plan:
(click to file on line)

1. Type
2. Aircraft Identification
3. Aircraft Type / Special Equipment
4. True Airspeed
kts
5. Departure Airport
(ICAO code)
6. Arriving Airport
(ICAO code)
7. Cruising Altitude
ft
8. Alternate Airport
(ICAO code)
9. Route of Flight
10. Remarks


00:00:00 Departure ATIS: Destination ATIS:

Clearance Limit:
Route:
Altitude: Expect in minutes
Frequency:
Transponder: (7500 Hijack / 7600 Lost Comms / 7700 Emergency)


KSJC 110253Z 35008KT 10SM FEW100 SCT160 16/05 A2998 RMK AO2 SLP153 T01560050 53001
Time: 2021-04-11T02:53:00Z
1618112076
Winds: 350 @ 8 kts
Visibility: 10.0 sm
Clouds (AGL): FEW 10000
SCT 16000
Temperature: 15.6 C
Dew Point: 5.0 C
Pressure: 29.97933 in Hgbr


Notes:

Data extracted from FAA Digital Chart Supplement. Effective: 0901Z Thursday, Feb 25, 2021 to 0901Z Thursday, APR 22, 2021
Current ATIS data is provided courtisy of PilotEdge.